| time (UTC) | temp C | wind direction | speed KPH | gust KPH | rain 1hr cm | rain 24hr cm | rain mn cm | humidity % | barometer mb |
| 20260509064530 | 7 | 177 | 11.3 | 0.0 | 0.00 | 0.00 | 0.00 | 65 | 976.4 |
| 20260509063047 | 7 | 172 | 11.3 | 0.0 | 0.00 | 0.00 | 0.00 | 58 | 976.3 |
| 20260509061531 | 7 | 170 | 12.9 | 0.0 | 0.00 | 0.00 | 0.00 | 58 | 976.3 |
| 20260509060107 | 7 | 159 | 12.9 | 0.0 | 0.00 | 0.00 | 0.00 | 58 | 976.3 |
| 20260509054531 | 7 | 159 | 11.3 | 0.0 | 0.00 | 0.00 | 0.00 | 44 | 977.4 |
| 20260509053046 | 7 | 163 | 11.3 | 0.0 | 0.00 | 0.00 | 0.00 | 46 | 977.0 |
| 20260509051529 | 7 | 156 | 11.3 | 0.0 | 0.00 | 0.00 | 0.00 | 46 | 977.0 |
| 20260509050100 | 7 | 159 | 9.7 | 0.0 | 0.00 | 0.00 | 0.00 | 46 | 977.0 |
| 20260509044530 | 7 | 160 | 8.0 | 0.0 | 0.00 | 0.00 | 0.00 | 42 | 977.9 |
| 20260509043046 | 7 | 159 | 9.7 | 0.0 | 0.00 | 0.00 | 0.00 | 41 | 976.8 |
| 20260509041529 | 8 | 167 | 8.0 | 0.0 | 0.00 | 0.00 | 0.00 | 41 | 976.9 |
| 20260509034530 | 8 | 169 | 8.0 | 0.0 | 0.00 | 0.00 | 0.00 | 38 | 977.6 |
| 20260509033045 | 8 | 169 | 8.0 | 0.0 | 0.00 | 0.00 | 0.00 | 37 | 978.4 |
| 20260509031529 | 8 | 171 | 8.0 | 0.0 | 0.00 | 0.00 | 0.00 | 37 | 978.4 |
| 20260509030100 | 9 | 174 | 9.7 | 0.0 | 0.00 | 0.00 | 0.00 | 37 | 978.4 |
| 20260509024529 | 10 | 189 | 8.0 | 0.0 | 0.00 | 0.00 | 0.00 | 32 | 978.5 |
| 20260509023048 | 10 | 195 | 9.7 | 0.0 | 0.00 | 0.00 | 0.00 | 38 | 978.6 |
| 20260509021529 | 10 | 212 | 8.0 | 0.0 | 0.00 | 0.00 | 0.00 | 38 | 978.5 |
| 20260509020058 | 10 | 234 | 6.4 | 0.0 | 0.00 | 0.00 | 0.00 | 38 | 978.5 |
| 20260509014529 | 10 | 233 | 6.4 | 0.0 | 0.00 | 0.00 | 0.00 | 37 | 978.2 |
| 20260509013044 | 11 | 242 | 6.4 | 0.0 | 0.00 | 0.00 | 0.00 | 37 | 978.2 |
| 20260509011529 | 11 | 257 | 6.4 | 0.0 | 0.00 | 0.00 | 0.00 | 37 | 978.2 |
| 20260509010054 | 12 | 264 | 6.4 | 0.0 | 0.00 | 0.00 | 0.00 | 37 | 978.2 |
| 20260509004528 | 12 | 273 | 6.4 | 0.0 | 0.00 | 0.00 | 0.00 | 27 | 978.0 |
| 20260509003046 | 13 | 273 | 6.4 | 0.0 | 0.00 | 0.00 | 0.00 | 28 | 979.3 |
| 20260509001528 | 13 | 277 | 8.0 | 0.0 | 0.00 | 0.00 | 0.00 | 28 | 979.3 |
| 20260508234529 | 15 | 273 | 12.9 | 0.0 | 0.00 | 0.00 | 0.00 | 24 | 978.4 |
| 20260508233048 | 15 | 270 | 14.5 | 0.0 | 0.00 | 0.00 | 0.00 | 23 | 979.0 |
| 20260508231530 | 15 | 269 | 14.5 | 0.0 | 0.00 | 0.00 | 0.00 | 23 | 979.0 |
| 20260508230054 | 16 | 270 | 16.1 | 0.0 | 0.00 | 0.00 | 0.00 | 23 | 979.0 |
| 20260508224530 | 16 | 274 | 16.1 | 0.0 | 0.00 | 0.00 | 0.00 | 23 | 979.0 |
| 20260508223049 | 16 | 272 | 17.7 | 0.0 | 0.00 | 0.00 | 0.00 | 21 | 979.9 |
| 20260508221531 | 16 | 273 | 17.7 | 0.0 | 0.00 | 0.00 | 0.00 | 21 | 979.9 |
| 20260508220054 | 16 | 271 | 17.7 | 0.0 | 0.00 | 0.00 | 0.00 | 21 | 979.9 |
| 20260508214531 | 16 | 270 | 17.7 | 0.0 | 0.00 | 0.00 | 0.00 | 20 | 980.3 |
| 20260508213048 | 16 | 266 | 19.3 | 0.0 | 0.00 | 0.00 | 0.00 | 24 | 979.8 |
| 20260508211531 | 17 | 257 | 19.3 | 0.0 | 0.00 | 0.00 | 0.00 | 24 | 979.8 |
| 20260508210059 | 17 | 255 | 17.7 | 0.0 | 0.00 | 0.00 | 0.00 | 24 | 979.8 |
| 20260508204531 | 17 | 253 | 19.3 | 0.0 | 0.00 | 0.00 | 0.00 | 29 | 980.1 |
| 20260508203049 | 17 | 253 | 19.3 | 0.0 | 0.00 | 0.00 | 0.00 | 26 | 979.8 |
| 20260508201531 | 17 | 244 | 16.1 | 0.0 | 0.00 | 0.00 | 0.00 | 26 | 979.8 |
| 20260508200056 | 17 | 250 | 16.1 | 0.0 | 0.00 | 0.00 | 0.00 | 23 | 979.8 |
| 20260508194531 | 17 | 253 | 16.1 | 0.0 | 0.00 | 0.00 | 0.00 | 25 | 980.1 |
| 20260508193046 | 17 | 248 | 16.1 | 0.0 | 0.00 | 0.00 | 0.00 | 25 | 980.1 |
| 20260508191530 | 17 | 255 | 16.1 | 0.0 | 0.00 | 0.00 | 0.00 | 25 | 980.2 |
| 20260508190054 | 17 | 255 | 14.5 | 0.0 | 0.00 | 0.00 | 0.00 | 25 | 980.2 |
| 20260508184531 | 16 | 252 | 14.5 | 0.0 | 0.00 | 0.00 | 0.00 | 29 | 980.6 |
| 20260508183050 | 16 | 246 | 16.1 | 0.0 | 0.00 | 0.00 | 0.00 | 30 | 980.4 |
| 20260508181530 | 16 | 246 | 16.1 | 0.0 | 0.00 | 0.00 | 0.00 | 30 | 980.4 |
| 20260508180059 | 16 | 247 | 16.1 | 0.0 | 0.00 | 0.00 | 0.00 | 30 | 980.4 |
| 20260508174531 | 16 | 247 | 16.1 | 0.0 | 0.00 | 0.00 | 0.00 | 30 | 981.3 |
| 20260508173049 | 16 | 250 | 16.1 | 0.0 | 0.00 | 0.00 | 0.00 | 30 | 981.3 |
| 20260508171530 | 15 | 248 | 16.1 | 0.0 | 0.00 | 0.00 | 0.00 | 30 | 981.3 |
| 20260508170056 | 15 | 254 | 16.1 | 0.0 | 0.00 | 0.00 | 0.00 | 29 | 981.3 |
| 20260508164530 | 15 | 252 | 14.5 | 0.0 | 0.00 | 0.00 | 0.00 | 35 | 981.3 |
| 20260508163049 | 15 | 248 | 11.3 | 0.0 | 0.00 | 0.00 | 0.00 | 35 | 981.7 |
| 20260508161531 | 14 | 246 | 12.9 | 0.0 | 0.00 | 0.00 | 0.00 | 35 | 981.7 |
| 20260508160100 | 13 | 242 | 11.3 | 0.0 | 0.00 | 0.00 | 0.00 | 35 | 981.7 |
| 20260508154531 | 13 | 235 | 9.7 | 0.0 | 0.00 | 0.00 | 0.00 | 41 | 982.6 |
| 20260508153050 | 12 | 218 | 9.7 | 0.0 | 0.00 | 0.00 | 0.00 | 44 | 981.8 |
| 20260508151530 | 12 | 210 | 8.0 | 0.0 | 0.00 | 0.00 | 0.00 | 44 | 981.8 |
| 20260508150058 | 11 | 210 | 8.0 | 0.0 | 0.00 | 0.00 | 0.00 | 44 | 981.8 |
| 20260508144531 | 11 | 204 | 6.4 | 0.0 | 0.00 | 0.00 | 0.00 | 54 | 981.8 |
| 20260508143048 | 11 | 209 | 8.0 | 0.0 | 0.00 | 0.00 | 0.00 | 53 | 981.9 |
| 20260508141531 | 10 | 204 | 6.4 | 0.0 | 0.00 | 0.00 | 0.00 | 53 | 981.9 |
| 20260508140104 | 10 | 200 | 6.4 | 0.0 | 0.00 | 0.00 | 0.00 | 60 | 981.8 |
| 20260508134531 | 10 | 197 | 6.4 | 0.0 | 0.00 | 0.00 | 0.00 | 68 | 981.7 |
| 20260508133046 | 8 | 188 | 9.7 | 0.0 | 0.00 | 0.00 | 0.00 | 68 | 981.7 |
| 20260508131531 | 8 | 187 | 8.0 | 0.0 | 0.00 | 0.00 | 0.00 | 68 | 981.7 |
| 20260508124531 | 6 | 187 | 8.0 | 0.0 | 0.00 | 0.00 | 0.00 | 86 | 980.8 |
| 20260508123049 | 6 | 187 | 8.0 | 0.0 | 0.00 | 0.00 | 0.00 | 84 | 981.5 |
| 20260508121530 | 5 | 180 | 6.4 | 0.0 | 0.00 | 0.00 | 0.00 | 84 | 981.5 |
| 20260508120108 | 4 | 172 | 4.8 | 0.0 | 0.00 | 0.00 | 0.00 | 84 | 981.5 |
| 20260508114530 | 3 | 171 | 3.2 | 0.0 | 0.00 | 0.00 | 0.00 | 87 | 980.9 |
| 20260508113051 | 2 | 163 | 4.8 | 0.0 | 0.00 | 0.00 | 0.00 | 84 | 981.6 |
| 20260508111530 | 2 | 153 | 4.8 | 0.0 | 0.00 | 0.00 | 0.00 | 84 | 981.7 |
| 20260508110056 | 2 | 158 | 6.4 | 0.0 | 0.00 | 0.00 | 0.00 | 84 | 981.7 |
| 20260508104533 | 2 | 156 | 6.4 | 0.0 | 0.00 | 0.00 | 0.00 | 80 | 980.6 |
| 20260508103050 | 2 | 150 | 6.4 | 0.0 | 0.00 | 0.00 | 0.00 | 78 | 981.7 |
| 20260508101533 | 2 | 152 | 4.8 | 0.0 | 0.00 | 0.00 | 0.00 | 78 | 981.7 |
| 20260508100055 | 2 | 150 | 4.8 | 0.0 | 0.00 | 0.00 | 0.00 | 78 | 981.7 |
| 20260508094532 | 2 | 150 | 4.8 | 0.0 | 0.00 | 0.00 | 0.00 | 75 | 981.0 |
| 20260508093046 | 3 | 145 | 3.2 | 0.0 | 0.00 | 0.00 | 0.00 | 81 | 981.7 |
| 20260508091533 | 3 | 197 | 3.2 | 0.0 | 0.00 | 0.00 | 0.00 | 81 | 981.7 |
| 20260508090059 | 3 | 211 | 3.2 | 0.0 | 0.00 | 0.00 | 0.00 | 81 | 981.7 |
| 20260508084532 | 3 | 216 | 4.8 | 0.0 | 0.00 | 0.00 | 0.00 | 79 | 981.1 |
| 20260508083051 | 3 | 196 | 4.8 | 0.0 | 0.00 | 0.00 | 0.00 | 80 | 981.1 |
| 20260508081532 | 3 | 186 | 6.4 | 0.0 | 0.00 | 0.00 | 0.00 | 80 | 981.1 |
| 20260508080100 | 3 | 198 | 4.8 | 0.0 | 0.00 | 0.00 | 0.00 | 80 | 981.1 |
| 20260508074533 | 3 | 219 | 3.2 | 0.0 | 0.00 | 0.00 | 0.00 | 87 | 981.9 |
| 20260508073051 | 3 | 225 | 4.8 | 0.0 | 0.00 | 0.00 | 0.00 | 87 | 981.9 |
| 20260508071531 | 4 | 195 | 4.8 | 0.0 | 0.00 | 0.00 | 0.00 | 87 | 982.0 |
| 20260508070101 | 4 | 209 | 6.4 | 0.0 | 0.00 | 0.00 | 0.00 | 87 | 982.0 |